Simultaneous Nadir Overpasses (SNOs) Predictions

Prediction of SNOs between GOES-15 and NOAA-20 Satellite Orbit:

Table of predicted SNOs for the next 14.0 days since TLE Epoch: 10/12/2024
Index Date Time (GOES-15) GOES-15 Lat,Lon NOAA-20 Lat,Lon Distance(km) Time Diff (sec)
1 10/14/2024 09:19:42 -0.22, 61.29 -0.33, 60.71 65.51 80
2 10/15/2024 09:03:38 -0.23, 61.29 0.66, 65.25 450.69 80
3 10/16/2024 21:25:27 0.20, 61.31 0.49, 59.96 152.59 80
4 10/17/2024 21:04:03 0.22, 61.32 -0.51, 64.50 362.52 80
5 10/19/2024 09:25:59 -0.19, 61.34 -0.70, 59.19 244.86 80
6 10/20/2024 09:09:54 -0.21, 61.34 0.31, 63.72 270.78 80
7 10/21/2024 21:31:44 0.18, 61.35 0.80, 58.43 331.78 80
8 10/22/2024 21:10:18 0.19, 61.37 -0.16, 62.97 182.73 80
9 10/24/2024 09:32:14 -0.16, 61.41 -1.01, 57.67 427.09 80
10 10/25/2024 09:16:10 -0.17, 61.42 0.02, 62.19 88.38 80
